Location: Newark
(51.4833°N, 7.2167°E)
Time: 18:31:05
(UTC+00:00)

N. Korean satellite - Visible Passes

Search period start: 12 December 2019 00:00
Search period end: 22 December 2019 00:00
Orbit: 455 x 506 km, 97.2° (Epoch: 12 December)

Date Brightness Start Highest point End Pass type
(mag) Time Alt. Az. Time Alt. Az. Time Alt. Az.
12 Dec 10.1 04:12:26 10° E 04:12:50 10° E 04:13:14 10° E visible
12 Dec 6.4 05:43:11 10° N 05:46:45 76° WNW 05:50:13 10° SSW visible
12 Dec 6.6 16:23:10 10° SSE 16:26:53 89° NE 16:30:35 10° NNW visible
13 Dec 7.3 05:17:47 10° NNE 05:21:17 54° E 05:24:42 10° S visible
13 Dec 6.9 15:57:57 10° SE 16:01:30 47° ENE 16:05:02 10° N visible
13 Dec 9.7 17:32:37 10° SW 17:35:08 17° W 17:37:38 10° NW visible
14 Dec 8.6 04:52:38 10° NE 04:55:43 28° E 04:58:45 10° SSE visible
14 Dec 7.5 06:26:06 10° N 06:29:04 26° WNW 06:32:00 10° WSW visible
14 Dec 8.7 17:06:13 10° SSW 17:09:30 30° W 17:12:48 10° NNW visible
15 Dec 9.6 04:27:56 10° NE 04:30:04 15° E 04:32:12 10° SE visible
15 Dec 6.7 06:00:21 10° N 06:03:46 47° WNW 06:07:06 10° SW visible
15 Dec 7.3 16:40:20 10° S 16:43:58 58° W 16:47:36 10° NNW visible
16 Dec 6.4 05:34:49 10° NNE 05:38:21 87° ESE 05:41:49 10° SSW visible
16 Dec 6.5 16:14:51 10° SSE 16:18:31 73° ENE 16:22:10 10° N visible
16 Dec 10.1 17:51:06 10° WSW 17:52:22 11° W 17:53:38 10° WNW visible
17 Dec 7.7 05:09:29 10° NNE 05:12:51 43° E 05:16:09 10° S visible
17 Dec 8.0 06:43:33 10° NNW 06:45:58 18° WNW 06:48:22 10° WSW visible
17 Dec 9.4 17:23:53 10° SW 17:26:41 20° W 17:29:28 10° NW visible
18 Dec 9.0 04:44:25 10° NE 04:47:16 23° E 04:50:03 10° SSE visible
18 Dec 7.2 06:17:36 10° N 06:20:43 30° WNW 06:23:47 10° SW visible
18 Dec 8.3 16:57:40 10° SSW 17:01:05 37° W 17:04:29 10° NNW visible
19 Dec 9.9 04:20:01 10° ENE 04:21:34 12° E 04:23:07 10° ESE visible
19 Dec 6.4 05:51:55 10° N 05:55:22 58° WNW 05:58:45 10° SSW visible
19 Dec 6.9 16:31:55 10° S 16:35:35 72° WSW 16:39:11 10° NNW visible
20 Dec 6.7 05:26:26 10° NNE 05:29:55 69° ESE 05:33:21 10° S visible
20 Dec 6.6 16:06:33 10° SSE 16:10:09 59° ENE 16:13:42 10° N visible
20 Dec 9.9 17:41:58 10° WSW 17:43:53 14° W 17:45:48 10° WNW visible
21 Dec 8.2 05:01:11 10° NNE 05:04:23 34° E 05:07:33 10° SSE visible
21 Dec 7.7 06:34:57 10° NNW 06:37:37 21° WNW 06:40:15 10° WSW visible
21 Dec 9.1 17:15:12 10° SSW 17:18:13 24° W 17:21:13 10° NW visible
